User: anonymous   Login
Location: Albany
(35.0000°S, 118.0000°E)
Time: 21:54:26
(UTC-04:00)
Language:

Cosmos 1346 Rocket - Orbit

View from above orbital plane
View from above orbital plane
View from above satellite
View from above satellite

Ground track
Ground track

The orbit data is extracted from the following two-line orbital elements,

1 13121U 82027B   16211.35339532 -.00000192  00000-0 -13992-4 0  9993
2 13121  81.1680 129.9665 0028740 153.7560 206.5128 15.07948278868322
Epoch (UTC): 29 July 2016 08:28:53
Eccentricity: 0.0028740
inclination: 81.1680°
perigee height: 522 km
apogee height: 562 km
right ascension of ascending node: 129.9665°
argument of perigee: 153.7560°
revolutions per day: 15.07948278
mean anomaly at epoch: 206.5128°
orbit number at epoch: 86832

The dashed part of the orbit path shows where the satellite is in the earth's shadow,  

DLR